This is the latest recevied weather packets stored in our database for station/object KE6LRO. If no packets are shown the sender has not sent any weather packets the latest 10 day(s).
| Time | Temp. | Humidity | Pressure | Rain* | Wind** | Luminosity | Snow |
|---|---|---|---|---|---|---|---|
| 1777730612 | 0.56° C | 98% | 1023.7 hPa | 0 mm | - | 59 W/m² | - |
| 1777730309 | 0.56° C | 98% | 1023.8 hPa | 0 mm | - | 51 W/m² | - |
| 1777730006 | 0.56° C | 98% | 1023.6 hPa | 0 mm | - | 49 W/m² | - |
| 1777729701 | 0° C | 99% | 1023.6 hPa | 0 mm | - | 50 W/m² | - |
| 1777729399 | 0° C | 99% | 1023.7 hPa | 0 mm | - | 52 W/m² | - |
| 1777729095 | 0° C | 99% | 1023.5 hPa | 0 mm | - | 55 W/m² | - |
| 1777728792 | -0.56° C | 99% | 1023.8 hPa | 0 mm | - | 53 W/m² | - |
| 1777728489 | -0.56° C | 99% | 1024 hPa | 0 mm | - | 49 W/m² | - |
| 1777728186 | -1.11° C | 99% | 1023.7 hPa | 0 mm | - | 44 W/m² | - |
| 1777727883 | -1.11° C | 99% | 1023.4 hPa | 0 mm | - | 36 W/m² | - |
| 1777727580 | -1.11° C | 99% | 1023.5 hPa | 0 mm | - | 30 W/m² | - |
| 1777727277 | -1.11° C | 99% | 1023.5 hPa | 0 mm | - | 25 W/m² | - |
| 1777726975 | -1.11° C | 99% | 1023.6 hPa | 0 mm | - | 22 W/m² | - |
| 1777726671 | -1.11° C | 99% | 1023.4 hPa | 0 mm | - | 19 W/m² | - |
| 1777726368 | -1.11° C | 99% | 1023.6 hPa | 0 mm | - | 14 W/m² | - |
| 1777726065 | -1.67° C | 99% | 1023.5 hPa | 0 mm | - | 10 W/m² | - |
| 1777725762 | -1.11° C | 99% | 1023.6 hPa | 0 mm | - | 7 W/m² | - |
| 1777725460 | -1.11° C | 99% | 1023.6 hPa | 0 mm | - | 5 W/m² | - |
| 1777725157 | -1.67° C | 99% | 1023.5 hPa | 0 mm | - | 4 W/m² | - |
| 1777724854 | -1.67° C | 99% | 1023.4 hPa | 0 mm | - | 3 W/m² | - |
| 1777724550 | -1.67° C | 99% | 1023.4 hPa | 0 mm | - | 2 W/m² | - |
| 1777724248 | -1.67° C | 99% | 1023.4 hPa | 0 mm | - | 1 W/m² | - |
| 1777723946 | -1.67° C | 99% | 1023.4 hPa | 0 mm | - | 1 W/m² | - |
| 1777723642 | -1.67° C | 99% | 1023.4 hPa | 0 mm | - | 0 W/m² | - |
| 1777723339 | -1.67° C | 99% | 1023.4 hPa | 0 mm | - | 0 W/m² | - |
* Rain latest hour (hover to see other rain measurements)
** Current wind speed in m/s (hover to see current wind gust speed)